GW4332 Weather Reports


time (UTC)temp
C
wind
direction
speed
KPH
gust
KPH
rain 1hr
cm
rain 24hr
cm
rain mn
cm
humidity
%
barometer
mb
20260902014030 14 124 3.2 6.4 0.00 0.00 0.00 84 1019.2
20260902013030 14 128 3.2 8.0 0.00 0.00 0.00 84 1019.3
20260902012029 14 134 3.2 8.0 0.00 0.00 0.00 83 1019.1
20260902011030 15 136 3.2 11.3 0.00 0.00 0.00 83 1019.1
20260902010029 15 129 3.2 8.0 0.00 0.00 0.00 83 1019.1
20260902005031 15 138 3.2 8.0 0.00 0.00 0.00 82 1019.1
20260902004030 15 144 3.2 8.0 0.00 0.00 0.00 82 1019.4
20260902003030 15 132 3.2 9.7 0.00 0.00 0.00 82 1019.2
20260902002030 15 126 1.6 6.4 0.00 0.00 0.00 82 1019.3
20260902001029 15 175 1.6 8.0 0.00 0.00 0.00 81 1019.4
20260902000030 15 171 1.6 6.4 0.00 0.00 0.00 81 1019.4
20260901235030 15 181 3.2 8.0 0.00 0.00 0.00 82 1019.6
20260901234030 15 186 3.2 9.7 0.00 0.00 0.00 82 1019.6
20260901233032 15 182 4.8 9.7 0.00 0.00 0.00 82 1019.7
20260901232029 15 179 3.2 6.4 0.00 0.00 0.00 81 1019.7
20260901231030 15 186 3.2 6.4 0.00 0.00 0.00 81 1019.7
20260901230030 15 185 3.2 8.0 0.00 0.00 0.00 81 1019.7
20260901225030 15 179 1.6 3.2 0.00 0.00 0.00 80 1019.7
20260901224030 15 166 1.6 6.4 0.00 0.00 0.00 80 1019.7
20260901223029 15 154 1.6 4.8 0.00 0.00 0.00 79 1019.7
20260901222030 16 172 1.6 4.8 0.00 0.00 0.00 79 1019.8
20260901221030 16 183 1.6 3.2 0.00 0.00 0.00 78 1019.7
20260901220030 16 169 1.6 4.8 0.00 0.00 0.00 78 1019.8
20260901215030 16 118 1.6 6.4 0.00 0.00 0.00 77 1019.5
20260901214030 16 183 3.2 9.7 0.00 0.00 0.00 77 1020.0
20260901213030 16 179 1.6 6.4 0.00 0.00 0.00 77 1020.2
20260901212030 16 187 4.8 9.7 0.00 0.00 0.00 77 1020.2
20260901211030 16 192 6.4 11.3 0.00 0.00 0.00 76 1020.4
20260901210030 16 194 6.4 11.3 0.00 0.00 0.00 76 1020.4
20260901205030 16 203 8.0 12.9 0.00 0.00 0.00 76 1020.4
20260901204030 16 195 8.0 11.3 0.00 0.00 0.00 76 1020.3
20260901203030 16 205 8.0 12.9 0.00 0.00 0.00 76 1020.4
20260901202030 16 198 8.0 11.3 0.00 0.00 0.00 76 1020.4
20260901201030 17 199 8.0 11.3 0.00 0.00 0.00 75 1020.4
20260901200030 17 209 8.0 11.3 0.00 0.00 0.00 75 1020.3
20260901195030 17 193 6.4 9.7 0.00 0.00 0.00 73 1020.1
20260901194030 17 225 11.3 16.1 0.00 0.00 0.00 73 1020.0
20260901193030 17 238 14.5 19.3 0.00 0.00 0.00 73 1019.9
20260901192030 17 241 14.5 19.3 0.00 0.00 0.00 71 1019.8
20260901191029 17 243 16.1 19.3 0.00 0.00 0.00 72 1019.9
20260901190030 17 238 16.1 20.9 0.00 0.00 0.00 72 1019.9
20260901185030 18 248 16.1 20.9 0.00 0.00 0.00 73 1019.9
20260901184030 18 253 19.3 24.1 0.00 0.00 0.00 71 1019.8
20260901183029 18 260 17.7 22.5 0.00 0.00 0.00 71 1019.7
20260901182030 18 252 17.7 24.1 0.00 0.00 0.00 69 1019.8
20260901181030 18 253 19.3 24.1 0.00 0.00 0.00 69 1019.9
20260901180030 18 248 20.9 27.4 0.00 0.00 0.00 69 1020.0
20260901175030 18 267 20.9 24.1 0.00 0.00 0.00 71 1020.0
20260901174030 18 265 17.7 22.5 0.00 0.00 0.00 70 1020.0
20260901173030 18 260 17.7 24.1 0.00 0.00 0.00 70 1020.0
20260901172030 18 259 19.3 24.1 0.00 0.00 0.00 68 1020.0
20260901171030 18 261 22.5 27.4 0.00 0.00 0.00 68 1020.1
20260901170030 18 262 19.3 24.1 0.00 0.00 0.00 69 1020.1
20260901165030 18 261 20.9 25.7 0.00 0.00 0.00 69 1020.1
20260901164029 18 248 20.9 24.1 0.00 0.00 0.00 68 1020.1
20260901163030 18 243 19.3 24.1 0.00 0.00 0.00 67 1020.0
20260901162030 18 248 19.3 27.4 0.00 0.00 0.00 71 1019.9
20260901161029 18 244 19.3 25.7 0.00 0.00 0.00 67 1019.9
20260901160030 18 244 20.9 27.4 0.00 0.00 0.00 68 1019.9
20260901155030 18 252 20.9 27.4 0.00 0.00 0.00 69 1019.8
20260901154030 18 237 22.5 29.0 0.00 0.00 0.00 70 1019.8
20260901153030 18 253 22.5 27.4 0.00 0.00 0.00 71 1019.7
20260901152030 18 251 24.1 29.0 0.00 0.00 0.00 70 1019.9
20260901151030 18 243 22.5 29.0 0.00 0.00 0.00 71 1019.7
20260901150030 18 251 24.1 29.0 0.00 0.00 0.00 72 1019.6
20260901145030 18 256 24.1 29.0 0.00 0.00 0.00 73 1019.6
20260901144030 18 256 24.1 29.0 0.00 0.00 0.00 71 1019.6
20260901143030 18 252 20.9 30.6 0.00 0.00 0.00 72 1019.6
20260901142030 18 262 25.7 32.2 0.00 0.00 0.00 73 1019.6
20260901141030 18 263 27.4 37.0 0.00 0.00 0.00 73 1019.6
20260901140029 18 272 27.4 37.0 0.00 0.00 0.00 75 1019.6
20260901135030 18 267 27.4 32.2 0.00 0.00 0.00 75 1019.5
20260901134030 18 273 24.1 32.2 0.00 0.00 0.00 77 1019.5
20260901133030 17 271 25.7 37.0 0.00 0.00 0.00 77 1019.5
20260901132029 17 270 29.0 37.0 0.00 0.00 0.00 76 1019.3
20260901131030 18 258 32.2 43.5 0.00 0.00 0.00 76 1019.4
20260901130030 18 258 32.2 41.8 0.00 0.00 0.00 75 1019.4
20260901125030 18 244 29.0 40.2 0.00 0.00 0.00 73 1019.4
20260901124029 18 251 25.7 32.2 0.00 0.00 0.00 72 1019.5
20260901123030 18 271 32.2 41.8 0.00 0.00 0.00 70 1019.4
20260901122030 18 277 32.2 43.5 0.00 0.00 0.00 70 1019.4
20260901121030 18 279 33.8 41.8 0.00 0.00 0.00 72 1019.3
20260901120030 18 269 30.6 40.2 0.00 0.00 0.00 71 1019.5
20260901115030 18 268 33.8 43.5 0.00 0.00 0.00 72 1019.3
20260901114030 18 263 32.2 38.6 0.00 0.00 0.00 74 1019.3
20260901113030 17 281 33.8 43.5 0.00 0.00 0.00 76 1019.2
20260901112029 17 271 33.8 43.5 0.00 0.00 0.00 74 1019.1
20260901111030 18 251 30.6 40.2 0.00 0.00 0.00 70 1019.1
20260901110030 18 249 29.0 38.6 0.00 0.00 0.00 69 1019.1
20260901105029 18 232 27.4 37.0 0.00 0.00 0.00 69 1019.1
20260901104030 17 253 32.2 40.2 0.00 0.00 0.00 70 1019.1
20260901103030 17 244 30.6 40.2 0.00 0.00 0.00 73 1019.0
20260901102030 17 254 32.2 43.5 0.00 0.00 0.00 74 1019.0
20260901101030 17 248 29.0 41.8 0.00 0.00 0.00 74 1018.9
20260901100029 17 241 29.0 35.4 0.00 0.00 0.00 73 1018.8
20260901095030 17 253 29.0 41.8 0.00 0.00 0.00 71 1018.9
20260901094030 17 245 27.4 38.6 0.00 0.00 0.00 76 1018.9
20260901093030 17 258 32.2 43.5 0.00 0.00 0.00 73 1018.8
20260901092030 17 255 33.8 41.8 0.00 0.00 0.00 75 1018.7
20260901091030 17 262 33.8 41.8 0.00 0.00 0.00 76 1018.6
20260901090030 17 242 25.7 37.0 0.00 0.00 0.00 77 1018.6
20260901085030 17 248 22.5 30.6 0.00 0.00 0.00 79 1018.5
20260901084029 17 237 24.1 33.8 0.00 0.00 0.00 79 1018.5
20260901083030 17 249 24.1 32.2 0.00 0.00 0.00 80 1018.3
20260901082030 17 261 25.7 33.8 0.00 0.00 0.00 79 1018.1
20260901081029 17 241 25.7 33.8 0.00 0.00 0.00 78 1017.9
20260901080030 17 247 24.1 30.6 0.00 0.00 0.00 80 1017.8
20260901075030 17 245 24.1 30.6 0.00 0.00 0.00 80 1017.7
20260901074030 17 233 22.5 29.0 0.00 0.00 0.00 81 1017.7
20260901073030 17 250 24.1 30.6 0.00 0.00 0.00 80 1017.5
20260901072030 17 251 24.1 32.2 0.00 0.00 0.00 80 1017.4
20260901071030 17 246 25.7 33.8 0.00 0.00 0.00 81 1017.4
20260901070030 17 250 27.4 35.4 0.00 0.00 0.00 81 1017.3
20260901065030 17 237 27.4 37.0 0.00 0.00 0.00 82 1017.1
20260901064030 17 248 24.1 30.6 0.00 0.00 0.00 82 1017.1
20260901063030 17 237 24.1 30.6 0.00 0.00 0.00 83 1017.1
20260901062030 17 240 24.1 29.0 0.00 0.00 0.00 84 1016.9
20260901061030 17 241 22.5 30.6 0.00 0.00 0.00 85 1016.8
20260901060030 16 236 17.7 30.6 0.00 0.00 0.00 89 1016.7
20260901055030 16 224 14.5 22.5 0.00 0.00 0.00 90 1016.9
20260901054029 16 209 11.3 20.9 0.00 0.00 0.00 91 1016.7
20260901053038 16 218 11.3 20.9 0.00 0.00 0.00 91 1016.7
20260901052030 15 209 9.7 17.7 0.00 0.00 0.00 91 1016.6
20260901051030 16 212 11.3 17.7 0.00 0.00 0.00 91 1016.5
20260901050030 15 205 9.7 17.7 0.00 0.00 0.00 91 1016.5
20260901045030 15 191 9.7 16.1 0.00 0.00 0.00 90 1016.4
20260901044030 15 189 9.7 17.7 0.00 0.00 0.00 90 1016.4
20260901043030 16 190 9.7 16.1 0.00 0.00 0.00 90 1016.3
20260901042030 16 195 8.0 16.1 0.00 0.00 0.00 89 1016.2
20260901041030 16 199 9.7 16.1 0.00 0.00 0.00 89 1016.2
20260901040030 16 193 9.7 14.5 0.00 0.00 0.00 88 1016.2
20260901035030 16 203 9.7 17.7 0.00 0.00 0.00 87 1016.1
20260901034030 17 209 9.7 16.1 0.00 0.00 0.00 86 1016.1
20260901033030 17 248 17.7 25.7 0.00 0.00 0.00 85 1016.1
20260901032030 17 247 20.9 27.4 0.00 0.00 0.00 86 1015.9
20260901031031 17 253 14.5 27.4 0.00 0.00 0.00 90 1015.8
20260901030030 16 203 6.4 14.5 0.00 0.00 0.00 89 1015.9
20260901025030 16 217 11.3 17.7 0.00 0.00 0.00 89 1015.9
20260901024030 16 205 11.3 17.7 0.00 0.00 0.00 89 1015.9
20260901023030 16 216 9.7 19.3 0.00 0.00 0.00 88 1015.8
20260901022029 17 208 9.7 19.3 0.00 0.00 0.00 87 1015.9
20260901021030 17 213 14.5 24.1 0.00 0.00 0.00 86 1015.9
20260901020030 17 243 16.1 24.1 0.00 0.00 0.00 87 1015.7
20260901015030 17 231 19.3 24.1 0.00 0.00 0.00 87 1015.6